Regional Weather Roundup
Issued by NWS

Home | Current Version | Previous Version | Text Only | Print | Product List | Glossary On
Versions: 1 2 3 4 5 6 7 8 9 10 11 12 13 14 15 16 17 18 19 20 21 22 23 24 25 26 27 28 29 30 31 32 33 34 35 36 37 38 39 40 41 42 43 44 45 46 47 48 49 50
000
ASUS44 KJAN 300610
RWRMS

MISSISSIPPI HOURLY WEATHER ROUNDUP
NATIONAL WEATHER SERVICE JACKSON MS
100 AM CDT MON MAY 30 2016

NOTE: "FAIR: INDICATES FEW OR NO CLOUDS BELOW 12,000 FEET WITH NO
SIGNIFICANT WEATHER AND/OR OBSTRUCTIONS TO VISIBILITY.

MSZ001>002-007>008-010>013-018>021-025>028-034>036-300700-
NORTHWEST MISSISSIPPI

CITY           SKY/WX    TMP DP  RH WIND       PRES   REMARKS
BATESVILLE     FAIR      69  66  90 CALM      30.06S
CLARKSDALE       N/A     70  70 100 CALM      30.05S
CLEVELAND      FAIR      69  69 100 CALM      30.05S
GREENWOOD      CLOUDY    70  64  81 CALM      30.05S
6HR MIN TEMP:  70; 6HR MAX TEMP:  84;

GREENVILLE     NOT AVBL
OLIVE BRANCH   CLEAR     73  73 100 CALM      30.06F
OXFORD         FAIR      72  68  88 CALM      30.07S
TUNICA         PTCLDY    70  64  83 NW3       30.05F
WINONA         FAIR      72  66  81 CALM      30.05S
$$

MSZ003>006-009-014>017-022>024-029>033-037>039-300700-
NORTHEAST MISSISSIPPI

CITY           SKY/WX    TMP DP  RH WIND       PRES   REMARKS
COLUMBUS AFB   PTCLDY    70  66  87 W6        30.03F
6HR MIN TEMP:  70; 6HR MAX TEMP:  88;

CORINTH        FAIR      72  70  94 CALM      30.04F
GOLDN TRIANGLE CLEAR     73  64  73 CALM      30.04F
STARKVILLE     FAIR      70  66  88 CALM      30.03F
TUPELO         CLEAR     72  67  84 CALM      30.04F
6HR MIN TEMP:  72; 6HR MAX TEMP:  86;

$$

MSZ040-058-300700-
CENTRAL MISSISSIPPI

CITY           SKY/WX    TMP DP  RH WIND       PRES   REMARKS
JACKSON INTL   CLOUDY    72  64  76 CALM      30.06F
6HR MIN TEMP:  71; 6HR MAX TEMP:  87;

JACKSON HAWKNS CLOUDY    73  63  70 CALM      30.07F
6HR MIN TEMP:  72; 6HR MAX TEMP:  88;

MADISON        FAIR      68  63  83 CALM      30.06F
MERIDIAN KEY   MOCLDY    72  66  81 CALM      30.06S
6HR MIN TEMP:  72; 6HR MAX TEMP:  90;

MERIDIAN NAS   CLEAR     71  67  87 CALM      30.05F
6HR MIN TEMP:  71; 6HR MAX TEMP:  90;

VICKSBURG TVR  CLEAR     70  66  87 CALM      30.06F
6HR MIN TEMP:  70; 6HR MAX TEMP:  90;

VICKSBURG VKS  PTCLDY    70  63  78 CALM      30.06F
$$

MSZ059>079-300700-
SOUTH MISSISSIPPI

CITY           SKY/WX    TMP DP  RH WIND       PRES   REMARKS
BROOKHAVEN     FAIR     N/A N/A N/A CALM      30.08F
COLUMBIA       FAIR      70  68  94 CALM      30.10S
HATTIESBURG    MOCLDY    72  69  90 CALM      30.06F
6HR MIN TEMP:  72; 6HR MAX TEMP:  86;

MCCOMB         PTCLDY    71  68  90 CALM      30.07F
6HR MIN TEMP:  71; 6HR MAX TEMP:  84;

NATCHEZ        CLOUDY    72  66  83 CALM      30.08F
6HR MIN TEMP:  72; 6HR MAX TEMP:  84;

PINE BELT      PTCLDY    72  64  78 CALM      30.08S
6HR MIN TEMP:  70; 6HR MAX TEMP:  84;

$$

MSZ080>082-300700-
COASTAL MISSISSIPPI

CITY           SKY/WX    TMP DP  RH WIND       PRES   REMARKS
BILOXI         MOCLDY    78  71  80 CALM      30.05S
6HR MIN TEMP:  77; 6HR MAX TEMP:  82;

PASCAGOULA     CLOUDY    71  70  96 CALM      30.05F
6HR MIN TEMP:  70; 6HR MAX TEMP:  82;

GULFPORT       MOCLDY    75  70  84 CALM      30.05S
6HR MIN TEMP:  74; 6HR MAX TEMP:  82;

$$




USA.gov is the U.S. government's official web portal to all federal, state and local government web resources and services.